Flag for Greenland Weather past 2 weeks in Nuuk, Greenland

Now
30 °F

Partly sunny.


Feels Like: 20 °F
Forecast: N/A
Wind: 13 mph from Northwest

Location: Godthaab / Nuuk

Current Time: May 30, 2015 at 6:51:01 PM

Latest Report: May 30, 2015 at 5:50 PM


Visibility: N/A

Pressure: 29.62 "Hg

Humidity: 75%

Dew point: 23 °F

Location of NuukLocation

Historic Weather in Nuuk — Graph

°F

Nuuk temperature yesterday

Maximum temperature yesterday: 32 °F (at 4:50 PM)
Minimum temperature yesterday: 28 °F (at 2:50 AM)
Average temperature yesterday: 29 °F

Past Weeks' High & Low Weather Summary

 TemperatureHumidityPressure
High50 °F (May 18, 12:50 AM)100% (May 18, 7:50 AM)30.09 "Hg (May 18, 7:50 AM)
Low23 °F (May 19, 4:50 AM)37% (May 17, 4:50 PM)29.33 "Hg (May 29, 12:50 AM)
Average31 °F79%29.72 "Hg
* Reported May 15 4:50 PM — May 30 4:50 PM, Nuuk, Weather by CustomWeather, © 2015

Note: Actual official high and low records may vary slightly from our data, if they occured in-between our weather recording intervals... More about our weather records

Advertising

Nuuk weather history for previous 24 hours

 ConditionsComfort  
Time TempWeatherWind HumidityBarometerVisibility
4:50 PM
Sat, May 30
30 °FPartly sunny.14 mph80%29.62 "HgN/A
3:50 PM30 °FPartly sunny.15 mph80%29.62 "HgN/A
2:50 PM30 °FPartly sunny.8 mph75%29.62 "HgN/A
1:50 PM30 °FPartly sunny.9 mph75%29.62 "HgN/A
12:50 PM30 °FPartly sunny.10 mph75%29.59 "HgN/A
11:50 AM30 °FPartly sunny.12 mph75%29.59 "HgN/A
10:50 AM28 °FScattered showers. Partly sunny.12 mph80%29.59 "HgN/A
9:50 AM28 °FPartly sunny.10 mph74%29.59 "HgN/A
8:50 AM28 °FScattered showers. Partly sunny.10 mph74%29.56 "HgN/A
7:50 AM28 °FPartly sunny.12 mph74%29.56 "HgN/A
6:50 AM28 °FOvercast.9 mph74%29.56 "HgN/A
5:50 AM27 °FOvercast.13 mph74%29.53 "HgN/A
4:50 AM27 °FOvercast.15 mph80%29.53 "HgN/A
3:50 AM27 °FOvercast.16 mph80%29.53 "HgN/A
2:50 AM28 °FOvercast.17 mph74%29.50 "HgN/A
1:50 AM28 °FOvercast.17 mph80%29.50 "HgN/A
12:50 AM28 °FLight freezing rain. Mostly cloudy.13 mph86%29.50 "Hg4 mi
11:50 PM
Fri, May 29
28 °FOvercast.16 mph80%29.50 "HgN/A
10:50 PM28 °FOvercast.14 mph74%29.50 "HgN/A
9:50 PM28 °FPartly sunny.17 mph74%29.50 "HgN/A
8:50 PM28 °FPartly sunny.16 mph74%29.50 "HgN/A
7:50 PM30 °FPartly sunny.16 mph75%29.47 "HgN/A
6:50 PM30 °FBroken clouds.15 mph80%29.50 "HgN/A
Weather by CustomWeather, © 2015

See weather overviewHow to use our weather pages